Location: Asheville, NC
(35.6000°N, 82.5500°W)
Time: 18:46:04
(UTC-05:00)

XW-2B - Pass Details

Date: 13 February 2018
Orbit: 509 x 532 km, 97.5° (Epoch: 16 February)

Event Time Altitude Azimuth Distance (km) Brightness Sun altitude
Rises 18:52:08 0° 208° (SSW) 2,623 ? -9.1°
Reaches altitude 10° 18:55:05 10° 234° (SW) 1,737 ? -9.7°
Maximum altitude 18:57:05 14° 266° (W) 1,505 ? -10.1°
Drops below altitude 10° 18:59:05 10° 299° (WNW) 1,738 ? -10.5°
Sets 19:02:04 0° 325° (NW) 2,626 ? -11.1°
